Time,TemperatureF,DewpointF,PressureIn,WindDirection,WindDirectionDegrees,WindSpeedMPH,WindSpeedGustMPH,Humidity,HourlyPrecipIn,Conditions,Clouds,dailyrainin,SolarRadiationWatts/m^2,SoftwareType,DateUTC
2013-12-13 00:02:00,13.0,-3.0,-100.00,North,1,14.0,36.0,48,0.00,,,0.00,0.000000,,2013-12-13 05:02:00,
2013-12-13 00:12:00,13.0,-3.0,-100.00,North,1,14.0,36.0,48,0.00,,,0.00,0.000000,,2013-12-13 05:12:00,
2013-12-13 00:43:00,12.0,-3.0,-100.00,North,2,17.0,34.0,49,0.00,,,0.00,0.000000,,2013-12-13 05:43:00,
2013-12-13 00:53:00,12.0,-3.0,-100.00,North,2,17.0,34.0,49,0.00,,,0.00,0.000000,,2013-12-13 05:53:00,
2013-12-13 01:02:00,12.0,-3.0,-100.00,North,2,17.0,34.0,49,0.00,,,0.00,0.000000,,2013-12-13 06:02:00,
2013-12-13 01:12:00,12.0,-3.0,-100.00,North,2,17.0,34.0,49,0.00,,,0.00,0.000000,,2013-12-13 06:12:00,
2013-12-13 01:43:00,12.0,-3.0,-100.00,North,5,18.0,35.0,50,0.00,,,0.00,0.000000,,2013-12-13 06:43:00,
2013-12-13 01:52:00,12.0,-3.0,-100.00,North,5,18.0,35.0,50,0.00,,,0.00,0.000000,,2013-12-13 06:52:00,
2013-12-13 02:02:00,12.0,-3.0,-100.00,North,5,18.0,35.0,50,0.00,,,0.00,0.000000,,2013-12-13 07:02:00,
2013-12-13 02:12:00,12.0,-3.0,-100.00,North,5,18.0,35.0,50,0.00,,,0.00,0.000000,,2013-12-13 07:12:00,
2013-12-13 02:42:00,11.0,-2.0,-100.00,North,9,16.0,31.0,54,0.00,,,0.00,0.000000,,2013-12-13 07:42:00,
2013-12-13 02:52:00,11.0,-2.0,-100.00,North,9,16.0,31.0,54,0.00,,,0.00,0.000000,,2013-12-13 07:52:00,
2013-12-13 03:02:00,11.0,-2.0,-100.00,North,9,16.0,31.0,54,0.00,,,0.00,0.000000,,2013-12-13 08:02:00,
2013-12-13 03:11:00,11.0,-2.0,-100.00,North,9,16.0,31.0,54,0.00,,,0.00,0.000000,,2013-12-13 08:11:00,
2013-12-13 03:42:00,12.0,-1.0,-100.00,North,3,16.0,30.0,56,0.00,,,0.00,0.000000,,2013-12-13 08:42:00,
2013-12-13 03:52:00,12.0,-1.0,-100.00,North,3,16.0,30.0,56,0.00,,,0.00,0.000000,,2013-12-13 08:52:00,
2013-12-13 04:02:00,12.0,-1.0,-100.00,North,3,16.0,30.0,56,0.00,,,0.00,0.000000,,2013-12-13 09:02:00,
2013-12-13 04:12:00,12.0,-1.0,-100.00,North,3,16.0,30.0,56,0.00,,,0.00,0.000000,,2013-12-13 09:12:00,
2013-12-13 04:43:00,13.0,1.0,-100.00,North,3,14.0,35.0,58,0.00,,,0.00,0.000000,,2013-12-13 09:43:00,
2013-12-13 04:54:00,13.0,1.0,-100.00,North,3,14.0,35.0,58,0.00,,,0.00,0.000000,,2013-12-13 09:54:00,
2013-12-13 05:03:00,13.0,1.0,-100.00,North,3,14.0,35.0,58,0.00,,,0.00,0.000000,,2013-12-13 10:03:00,
2013-12-13 05:12:00,13.0,1.0,-100.00,North,3,14.0,35.0,58,0.00,,,0.00,0.000000,,2013-12-13 10:12:00,
2013-12-13 05:43:00,13.0,2.0,-100.00,North,7,15.0,30.0,62,0.00,,,0.00,0.000000,,2013-12-13 10:43:00,
2013-12-13 05:53:00,13.0,2.0,-100.00,North,7,15.0,30.0,62,0.00,,,0.00,0.000000,,2013-12-13 10:53:00,
2013-12-13 06:02:00,13.0,2.0,-100.00,North,7,15.0,30.0,62,0.00,,,0.00,0.000000,,2013-12-13 11:02:00,
2013-12-13 06:12:00,13.0,2.0,-100.00,North,7,15.0,30.0,62,0.00,,,0.00,0.000000,,2013-12-13 11:12:00,
2013-12-13 06:43:00,13.0,3.0,-100.00,North,9,13.0,25.0,64,0.00,,,0.00,0.000000,,2013-12-13 11:43:00,
2013-12-13 06:53:00,13.0,3.0,-100.00,North,9,13.0,25.0,64,0.00,,,0.00,0.000000,,2013-12-13 11:53:00,
2013-12-13 07:02:00,13.0,3.0,-100.00,North,9,13.0,25.0,64,0.00,,,0.00,0.000000,,2013-12-13 12:02:00,
2013-12-13 07:12:00,13.0,3.0,-100.00,North,9,13.0,25.0,64,0.00,,,0.00,0.000000,,2013-12-13 12:12:00,
2013-12-13 07:42:00,13.0,3.0,-100.00,North,1,13.0,25.0,65,0.00,,,0.00,0.000000,,2013-12-13 12:42:00,
2013-12-13 07:53:00,13.0,3.0,-100.00,North,1,13.0,25.0,65,0.00,,,0.00,0.000000,,2013-12-13 12:53:00,
2013-12-13 08:02:00,13.0,3.0,-100.00,North,1,13.0,25.0,65,0.00,,,0.00,0.000000,,2013-12-13 13:02:00,
2013-12-13 08:12:00,13.0,3.0,-100.00,North,1,13.0,25.0,65,0.00,,,0.00,0.000000,,2013-12-13 13:12:00,
2013-12-13 08:42:00,13.0,4.0,-100.00,North,358,11.0,23.0,66,0.00,,,0.00,10.000000,,2013-12-13 13:42:00,
2013-12-13 08:52:00,13.0,4.0,-100.00,North,358,11.0,23.0,66,0.00,,,0.00,10.000000,,2013-12-13 13:52:00,
2013-12-13 09:02:00,13.0,4.0,-100.00,North,358,11.0,23.0,66,0.00,,,0.00,10.000000,,2013-12-13 14:02:00,
2013-12-13 09:11:00,13.0,4.0,-100.00,North,358,11.0,23.0,66,0.00,,,0.00,10.000000,,2013-12-13 14:11:00,
2013-12-13 09:43:00,17.0,6.0,-100.00,North,2,11.0,21.0,62,0.00,,,0.00,74.000000,,2013-12-13 14:43:00,
2013-12-13 09:53:00,17.0,6.0,-100.00,North,2,11.0,21.0,62,0.00,,,0.00,74.000000,,2013-12-13 14:53:00,
2013-12-13 10:02:00,17.0,6.0,-100.00,North,2,11.0,21.0,62,0.00,,,0.00,74.000000,,2013-12-13 15:02:00,
2013-12-13 10:12:00,17.0,6.0,-100.00,North,2,11.0,21.0,62,0.00,,,0.00,74.000000,,2013-12-13 15:12:00,
2013-12-13 10:44:00,20.0,8.0,-100.00,North,1,10.0,22.0,58,0.00,,,0.00,146.000000,,2013-12-13 15:44:00,
2013-12-13 10:54:00,20.0,8.0,-100.00,North,1,10.0,22.0,58,0.00,,,0.00,146.000000,,2013-12-13 15:54:00,
2013-12-13 11:03:00,20.0,8.0,-100.00,North,1,10.0,22.0,58,0.00,,,0.00,146.000000,,2013-12-13 16:03:00,
2013-12-13 11:13:00,20.0,8.0,-100.00,North,1,10.0,22.0,58,0.00,,,0.00,146.000000,,2013-12-13 16:13:00,
2013-12-13 11:43:00,22.0,10.0,-100.00,North,354,8.0,17.0,59,0.00,,,0.00,156.000000,,2013-12-13 16:43:00,
2013-12-13 11:53:00,22.0,10.0,-100.00,North,354,8.0,17.0,59,0.00,,,0.00,156.000000,,2013-12-13 16:53:00,
2013-12-13 12:02:00,22.0,10.0,-100.00,North,354,8.0,17.0,59,0.00,,,0.00,156.000000,,2013-12-13 17:02:00,
2013-12-13 12:12:00,22.0,10.0,-100.00,North,354,8.0,17.0,59,0.00,,,0.00,156.000000,,2013-12-13 17:12:00,
2013-12-13 12:43:00,24.0,11.0,-100.00,NNW,344,6.0,16.0,58,0.00,,,0.00,172.000000,,2013-12-13 17:43:00,
2013-12-13 12:52:00,24.0,11.0,-100.00,NNW,344,6.0,16.0,58,0.00,,,0.00,172.000000,,2013-12-13 17:52:00,
2013-12-13 13:02:00,24.0,11.0,-100.00,NNW,344,6.0,16.0,58,0.00,,,0.00,172.000000,,2013-12-13 18:02:00,
2013-12-13 13:12:00,24.0,11.0,-100.00,NNW,344,6.0,16.0,58,0.00,,,0.00,172.000000,,2013-12-13 18:12:00,
2013-12-13 13:42:00,28.0,13.0,-100.00,North,355,9.0,15.0,52,0.00,,,0.00,201.000000,,2013-12-13 18:42:00,
2013-12-13 13:52:00,28.0,13.0,-100.00,North,355,9.0,15.0,52,0.00,,,0.00,201.000000,,2013-12-13 18:52:00,
2013-12-13 14:02:00,28.0,13.0,-100.00,North,355,9.0,15.0,52,0.00,,,0.00,201.000000,,2013-12-13 19:02:00,
2013-12-13 14:12:00,28.0,13.0,-100.00,North,355,9.0,15.0,52,0.00,,,0.00,201.000000,,2013-12-13 19:12:00,
2013-12-13 14:42:00,27.0,11.0,-100.00,North,353,8.0,15.0,51,0.02,,,0.02,179.000000,,2013-12-13 19:42:00,
2013-12-13 14:52:00,27.0,11.0,-100.00,North,353,8.0,15.0,51,0.02,,,0.02,179.000000,,2013-12-13 19:52:00,
2013-12-13 15:02:00,27.0,11.0,-100.00,North,353,8.0,15.0,51,0.02,,,0.02,179.000000,,2013-12-13 20:02:00,
2013-12-13 15:12:00,27.0,11.0,-100.00,North,353,8.0,15.0,51,0.02,,,0.02,179.000000,,2013-12-13 20:12:00,
2013-12-13 15:42:00,24.0,10.0,-100.00,NNW,337,8.0,15.0,55,0.00,,,0.02,74.000000,,2013-12-13 20:42:00,
2013-12-13 15:53:00,24.0,10.0,-100.00,NNW,337,8.0,15.0,55,0.00,,,0.02,74.000000,,2013-12-13 20:53:00,
2013-12-13 16:02:00,24.0,10.0,-100.00,NNW,337,8.0,15.0,55,0.00,,,0.02,74.000000,,2013-12-13 21:02:00,
2013-12-13 16:11:00,24.0,10.0,-100.00,NNW,337,8.0,15.0,55,0.00,,,0.02,74.000000,,2013-12-13 21:11:00,
2013-12-13 16:43:00,24.0,10.0,-100.00,North,0,7.0,16.0,55,0.00,,,0.02,31.000000,,2013-12-13 21:43:00,
2013-12-13 16:53:00,24.0,10.0,-100.00,North,0,7.0,16.0,55,0.00,,,0.02,31.000000,,2013-12-13 21:53:00,
2013-12-13 17:03:00,24.0,10.0,-100.00,North,0,7.0,16.0,55,0.00,,,0.02,31.000000,,2013-12-13 22:03:00,
2013-12-13 17:13:00,24.0,10.0,-100.00,North,0,7.0,16.0,55,0.00,,,0.02,31.000000,,2013-12-13 22:13:00,
2013-12-13 17:53:00,23.0,9.0,-100.00,North,359,8.0,17.0,54,0.00,,,0.02,3.000000,,2013-12-13 22:53:00,
2013-12-13 18:03:00,23.0,9.0,-100.00,North,359,8.0,17.0,54,0.00,,,0.02,3.000000,,2013-12-13 23:03:00,
2013-12-13 18:12:00,23.0,9.0,-100.00,North,359,8.0,17.0,54,0.00,,,0.02,3.000000,,2013-12-13 23:12:00,
2013-12-13 18:43:00,23.0,10.0,-100.00,North,2,7.0,18.0,56,0.00,,,0.02,0.000000,,2013-12-13 23:43:00,
2013-12-13 18:53:00,23.0,10.0,-100.00,North,2,7.0,18.0,56,0.00,,,0.02,0.000000,,2013-12-13 23:53:00,
2013-12-13 19:02:00,23.0,10.0,-100.00,North,2,7.0,18.0,56,0.00,,,0.02,0.000000,,2013-12-14 00:02:00,
2013-12-13 19:11:00,23.0,10.0,-100.00,North,2,7.0,18.0,56,0.00,,,0.02,0.000000,,2013-12-14 00:11:00,
2013-12-13 19:42:00,22.0,10.0,-100.00,North,3,5.0,12.0,59,0.00,,,0.02,0.000000,,2013-12-14 00:42:00,
2013-12-13 19:52:00,22.0,10.0,-100.00,North,3,5.0,12.0,59,0.00,,,0.02,0.000000,,2013-12-14 00:52:00,
2013-12-13 20:02:00,22.0,10.0,-100.00,North,3,5.0,12.0,59,0.00,,,0.02,0.000000,,2013-12-14 01:02:00,
2013-12-13 20:11:00,22.0,10.0,-100.00,North,3,5.0,12.0,59,0.00,,,0.02,0.000000,,2013-12-14 01:11:00,
2013-12-13 20:42:00,21.0,10.0,-100.00,North,2,5.0,11.0,62,0.00,,,0.02,0.000000,,2013-12-14 01:42:00,
2013-12-13 20:52:00,21.0,10.0,-100.00,North,2,5.0,11.0,62,0.00,,,0.02,0.000000,,2013-12-14 01:52:00,
2013-12-13 21:01:00,21.0,10.0,-100.00,North,2,5.0,11.0,62,0.00,,,0.02,0.000000,,2013-12-14 02:01:00,
2013-12-13 21:12:00,21.0,10.0,-100.00,North,2,5.0,11.0,62,0.00,,,0.02,0.000000,,2013-12-14 02:12:00,
2013-12-13 21:42:00,21.0,11.0,-100.00,North,9,7.0,10.0,64,0.00,,,0.02,0.000000,,2013-12-14 02:42:00,
2013-12-13 21:52:00,21.0,11.0,-100.00,North,9,7.0,10.0,64,0.00,,,0.02,0.000000,,2013-12-14 02:52:00,
2013-12-13 22:02:00,21.0,11.0,-100.00,North,9,7.0,10.0,64,0.00,,,0.02,0.000000,,2013-12-14 03:02:00,
2013-12-13 22:12:00,21.0,11.0,-100.00,North,9,7.0,10.0,64,0.00,,,0.02,0.000000,,2013-12-14 03:12:00,
2013-12-13 22:44:00,22.0,12.0,-100.00,North,8,6.0,11.0,64,0.00,,,0.02,0.000000,,2013-12-14 03:44:00,
2013-12-13 22:54:00,22.0,12.0,-100.00,North,8,6.0,11.0,64,0.00,,,0.02,0.000000,,2013-12-14 03:54:00,
2013-12-13 23:03:00,22.0,12.0,-100.00,North,8,6.0,11.0,64,0.00,,,0.02,0.000000,,2013-12-14 04:03:00,
2013-12-13 23:13:00,22.0,12.0,-100.00,North,8,6.0,11.0,64,0.00,,,0.02,0.000000,,2013-12-14 04:13:00,
2013-12-13 23:43:00,21.0,11.0,-100.00,NNE,14,4.0,9.0,65,0.00,,,0.02,0.000000,,2013-12-14 04:43:00,
2013-12-13 23:53:00,21.0,11.0,-100.00,NNE,14,4.0,9.0,65,0.00,,,0.02,0.000000,,2013-12-14 04:53:00,